{"data":{"norad_id":56474,"intl_designator":"2023-064AC","name":"STARLINK-5524","alt_names":[],"object_type":"PAYLOAD","status":"ACTIVE","operator":null,"country":"US","launch_date":"2023-05-10","launch_site_code":"AFWTR","launch_vehicle":null,"mission":null,"orbit_class":"UNKNOWN","rcs_meters":null,"size_class":null,"mass_kg":null,"dimensions":null,"purposes":["comms"],"wikipedia_slug":null,"has_3d_model":false,"image_url":null,"decayed_at":null,"tle_current":{"epoch":"2026-09-20T22:00:03.000096Z","epoch_age_seconds":76016,"freshness":"FRESH","line1":"1 56474U 23064AC  26263.91670139 -.00002270  00000+0 -15143-3 0  9995","line2":"2 56474  70.0012 352.2987 0003694 240.7512   8.5517 15.05299863  5769","mean_motion":15.05299863,"eccentricity":0.0003694,"inclination_deg":70.0012,"raan_deg":352.2987,"arg_perigee_deg":240.7512,"mean_anomaly_deg":8.5517,"bstar":-0.00015143,"rev_number":576,"period_min":95.66200299322,"perigee_km":548.02590270522,"apogee_km":553.14484279421,"semimajor_km":6928.7223727497,"source":"CELESTRAK","updated_at":"2026-09-21T09:00:33.446126Z"}}}